Weather History for Waco, TX

Change the Weather History Date:

Friday, November 23, 2012

  Actual Average Record
Temperature  
Mean Temperature 56 °F 54 °F  
Max Temperature 67 °F 65 °F 87 °F (2005)
Min Temperature 44 °F 44 °F 23 °F (1975)
Degree Days  
Heating Degree Days 9 11  
Month to date heating degree days 139 174  
Since 1 July heating degree days 249 241  
Cooling Degree Days 0 1  
Month to date cooling degree days 35 35  
Year to date cooling degree days 3206 2791  
Growing Degree Days 5 (Base 50)    
Moisture  
Dew Point 38 °F    
Average Humidity 56    
Maximum Humidity 93    
Minimum Humidity 19    
Precipitation  
Precipitation 0.00 in 0.07 in 3.77 in (1952)
Month to date precipitation T 2.22  
Year to date precipitation 31.53 31.34  
Snow  
Snow 0.00 in 0.00 in T in (1957)
Month to date snowfall 0.0 0.1  
Since 1 July snowfall 0.0 0.1  
Since 1 September snowfall 0.0 0.1  
Snow Depth 0.00 in    
Sea Level Pressure  
Sea Level Pressure 30.30 in    
Wind  
Wind Speed 11 mph (North)    
Max Wind Speed 26 mph    
Max Gust Speed 35 mph    
Visibility 9 miles    
Events      
T = Trace of Precipitation, MM = Missing Value Source: NWS Daily Summary

Daily Weather History Graph

Daily Weather History Graph

Search for Another Location

Airport:

Trip Planner

Search our weather history database for the weather conditions in past years. The results will help you decide how hot, cold, wet, or windy it might be!

Date:

Astronomy

Nov. 23, 2012 Rise Set
Actual Time 7:04 AM CST 5:26 PM CST
Civil Twilight 6:38 AM CST 5:52 PM CST
Nautical Twilight 6:08 AM CST 6:22 PM CST
Astronomical Twilight 5:39 AM CST 6:51 PM CST
Moon 2:29 PM CST (11/23) 2:38 AM CST (11/23)
Length of Visible Light 11h 14m
Length of Day
10h 22m
Waxing Gibbous, 80% of the Moon is Illuminated
Nov 23
Waxing Gibbous
Nov 28
Full
Dec 6
Last Quarter
Dec 13
New
Dec 19
First Quarter

Hourly Weather History & Observations

Time (CST) Temp. Windchill Dew Point Humidity Pressure Visibility Wind Dir Wind Speed Gust Speed Precip Events Conditions
12:51 AM 64.0 °F - 55.0 °F 73% 30.10 in 10.0 mi South 11.5 mph - N/A   Clear
1:51 AM 62.1 °F - 55.0 °F 78% 30.12 in 10.0 mi SSW 6.9 mph - N/A   Clear
2:51 AM 57.9 °F - 54.0 °F 87% 30.13 in 10.0 mi South 6.9 mph - N/A   Clear
3:51 AM 57.0 °F - 53.1 °F 87% 30.14 in 7.0 mi Calm Calm - N/A   Clear
4:51 AM 54.0 °F - 51.1 °F 90% 30.16 in 7.0 mi Calm Calm - N/A   Clear
5:51 AM 55.0 °F - 52.0 °F 89% 30.17 in 6.0 mi Calm Calm - N/A   Scattered Clouds
6:51 AM 50.0 °F - 48.9 °F 96% 30.19 in 4.0 mi WSW 3.5 mph - N/A   Clear
7:51 AM 55.0 °F - 52.0 °F 89% 30.23 in 5.0 mi NNW 6.9 mph - N/A   Clear
8:51 AM 60.8 °F - 53.6 °F 77% 30.28 in 7.0 mi North 20.7 mph - N/A   Clear
9:11 AM 62.6 °F - 51.8 °F 68% 30.30 in 10.0 mi NNE 19.6 mph 27.6 mph N/A   Mostly Cloudy
9:38 AM 66.2 °F - 50.0 °F 56% 30.31 in 10.0 mi North 21.9 mph 31.1 mph N/A   Mostly Cloudy
9:51 AM 66.0 °F - 48.9 °F 54% 30.31 in 10.0 mi NNE 19.6 mph 31.1 mph N/A   Mostly Cloudy
10:51 AM 64.9 °F - 44.1 °F 47% 30.33 in 10.0 mi North 23.0 mph 32.2 mph N/A   Overcast
11:51 AM 64.0 °F - 37.0 °F 37% 30.34 in 10.0 mi NNE 20.7 mph 28.8 mph N/A   Overcast
12:51 PM 64.0 °F - 33.1 °F 31% 30.33 in 10.0 mi NNE 17.3 mph 27.6 mph N/A   Overcast
1:51 PM 66.0 °F - 30.9 °F 27% 30.32 in 10.0 mi NNE 21.9 mph 26.5 mph N/A   Overcast
2:51 PM 66.0 °F - 27.0 °F 23% 30.33 in 10.0 mi NNE 19.6 mph 26.5 mph N/A   Overcast
3:51 PM 66.9 °F - 23.0 °F 19% 30.33 in 10.0 mi NNE 17.3 mph - N/A   Overcast
4:51 PM 64.9 °F - 21.9 °F 19% 30.34 in 10.0 mi North 10.4 mph - N/A   Overcast
4:53 PM 64.4 °F - 21.2 °F 19% 30.35 in 10.0 mi North 10.4 mph - N/A   Scattered Clouds
5:51 PM 63.0 °F - 26.1 °F 25% 30.35 in 10.0 mi North 11.5 mph - N/A   Overcast
6:51 PM 62.1 °F - 23.0 °F 22% 30.38 in 10.0 mi North 13.8 mph 21.9 mph N/A   Overcast
7:51 PM 59.0 °F - 21.0 °F 23% 30.40 in 10.0 mi North 11.5 mph - N/A   Mostly Cloudy
8:51 PM 57.0 °F - 21.9 °F 26% 30.40 in 10.0 mi North 12.7 mph 29.9 mph N/A   Mostly Cloudy
9:51 PM 52.0 °F - 23.0 °F 32% 30.41 in 10.0 mi North 6.9 mph - N/A   Mostly Cloudy
10:51 PM 44.1 °F 41.5 °F 23.0 °F 43% 30.43 in 10.0 mi North 4.6 mph - N/A   Clear
11:51 PM 44.1 °F 40.8 °F 23.0 °F 43% 30.42 in 10.0 mi NNW 5.8 mph - N/A   Clear